Weather in Korolevskiy

Russia / Altai Krai     53°10′37″N   81°27′20″E
temp.,
°C
wind,
m/s
gust,
m/s
humid.,
%
clouds,
%
prec.,
mm/h
press.,
hPa
HPBL,
m
10 may, mon
mon1001:00+9ene814465 0.0 1018677
04:00+7e7145082 0.0 1019679
07:00+6ene71460100 0.0 1020704
10:00+11ene101551100 0.0 1018984
13:00+15ene10123659 0.0 10161494
16:00+17ene8103086 0.0 10151879
19:00+17ene7103265 0.0 10142114
22:00+13ne61241100 0.0 1015397
11 may, tue
tue1101:00+10nne71358100 0.0 1015398
04:00+8nne6126847 0.0 1015315
07:00+7nne512725 0.0 1016381
10:00+13nne79480 0.0 10161108
13:00+16nne78375 0.0 10152200
16:00+18n7832100 0.0 10152562
19:00+17nne6937100 0.0 10162227
22:00+12n9155917 0.0 1018722
12 may, wed
wed1201:00+11n71465100 0.0 1018501
04:00+9n6127854 0.1 1019326
07:00+8n510815 0.1 1020337
10:00+14n69555 0.0 1020760
13:00+18n663815 0.0 10192476
16:00+17nnw464387 0.0 10191584
19:00+17n563919 0.0 10191638
22:00+13n345291 0.0 102052
13 may, thu
thu1301:00+12nw1153100 0.0 102010
04:00+10ssw1157100 0.0 101810
07:00+11wnw1159100 0.0 101919
10:00+14nnw2244100 0.0 1018716
13:00+17n223955 0.0 10181880
16:00+17nw323998 0.0 10171585
19:00+17n33415 0.0 10181576
22:00+13n475999 0.0 1019172
14 may, fri
fri1401:00+11nnw2368100 0.0 102048
04:00+9nw2375100 0.0 101953
07:00+10wnw2577100 0.0 1021171
10:00+15wnw454299 0.0 1021663
13:00+16wnw5639100 0.0 1021991
16:00+19wnw5642100 0.0 10201945
19:00+17nnw5546100 0.0 10211213
22:00+13nnw3455100 0.0 102261